Date,TemperatureHighF,TemperatureAvgF,TemperatureLowF,DewpointHighF,DewpointAvgF,DewpointLowF,HumidityHigh,HumidityAvg,HumidityLow,PressureMaxIn,PressureMinIn,WindSpeedMaxMPH,WindSpeedAvgMPH,GustSpeedMaxMPH,PrecipitationSumIn
2013-3-1,72,52,31,32,28,19,81,45,19,30.41,30.21,4,1,9,0.00
2013-3-2,64,51,40,32,29,26,67,46,25,30.53,30.37,13,2,15,0.00
2013-3-3,76,55,33,46,35,27,79,51,23,30.38,30.05,17,3,19,0.00
2013-3-4,86,68,54,58,51,45,87,60,26,30.05,29.79,10,3,15,0.00
2013-3-5,67,58,42,58,31,14,95,42,16,30.45,29.86,27,4,32,0.00
2013-3-6,65,50,36,29,22,16,51,35,16,30.56,30.33,7,1,12,0.00
2013-3-7,74,57,40,56,47,29,88,69,46,30.35,30.19,11,2,17,0.00
2013-3-8,69,63,60,66,60,54,97,88,78,30.24,30.07,8,2,14,0.01
2013-3-9,76,68,63,67,64,60,96,88,73,30.11,29.72,24,3,24,0.00
2013-3-10,69,63,51,65,46,34,96,57,30,30.21,29.73,12,3,18,0.00
2013-3-11,70,54,40,36,31,25,79,47,22,30.30,30.10,9,1,17,0.00
2013-3-12,79,59,37,45,35,30,84,47,18,30.30,30.16,7,1,15,0.00
2013-3-13,77,62,45,49,42,38,90,53,26,30.52,30.30,8,1,11,0.00
2013-3-14,79,63,46,56,49,39,92,64,33,30.48,30.30,9,2,17,0.00
2013-3-15,82,66,49,58,50,42,96,63,26,30.34,30.07,12,2,19,0.00
2013-3-16,85,69,57,63,59,55,95,73,37,30.10,29.82,10,3,21,0.00
2013-3-17,87,73,65,66,63,61,89,73,42,29.90,29.70,9,2,15,0.00
2013-3-18,96,76,64,67,58,41,96,63,16,29.99,29.78,9,2,18,0.00
2013-3-19,79,67,52,66,56,46,84,70,54,30.06,29.89,10,1,13,0.00
2013-3-20,73,64,55,64,50,41,88,65,32,30.30,30.02,15,3,23,0.00
2013-3-21,76,64,50,63,54,43,88,71,56,30.12,29.71,13,2,20,0.00
2013-3-22,87,74,65,68,65,56,94,78,46,29.80,29.68,9,2,13,0.00
2013-3-23,80,65,53,64,56,50,91,75,54,29.86,29.66,8,2,13,0.00
2013-3-24,64,56,46,60,36,23,93,52,24,30.26,29.77,15,4,22,0.00
2013-3-25,60,49,38,28,23,14,65,40,17,30.49,30.26,11,2,17,0.00
2013-3-26,65,51,35,30,23,19,67,37,18,30.61,30.39,7,1,9,0.00
2013-3-27,68,56,38,52,41,29,79,58,43,30.44,30.26,9,2,15,0.00
2013-3-28,72,65,59,60,57,52,85,74,62,30.30,30.20,10,2,13,0.00
2013-3-29,78,68,56,62,58,54,97,73,52,30.26,30.12,10,2,14,0.00
2013-3-30,86,73,65,65,63,61,90,72,45,30.19,29.95,8,2,15,0.00
2013-3-31,86,71,65,67,64,61,93,80,50,30.03,29.87,7,1,14,0.00